Starlink 30141

operational
NORAD ID: 57620 Int'l Des: 2023-119 Owner: SPXS Country: US Constellation: starlink
LEOCIRCULAR

关于 Starlink 30141

正在加载描述...

实时位置

正在加载3D地球...

即将过境

高度历史

Altitude vs Time

uPlot chart will show altitude changes over time

两行轨道根数

1 57620U 23119U 26034.92661203 -.00000602 00000-0 -29428-4 0 9999
2 57620 43.0023 265.3666 0003195 234.9107 125.1436 15.02532271138004
Epoch: Feb 3, 2026 • Age: 14 hours

当前状态

高度 565.0 km
速度 7.58 km/s
星下点 -24.89°S, 88.63°W
发射日期 Aug 11, 2023
运行时间 2.4 years
类型 internet

技术详情

分类 Payload
质量 730.00 kg
干质量 700.00 kg
总质量 730.00 kg
长度 0.30 m
直径 4.10 m
跨度 29.00 m
形状 Box + pan
制造商 SPXS
平台类型 Starlink V2M
阶段状态 In Orbit
所有者/国家 SPXS/US

大型星座

Loading constellations...